Wetbulb
51.53 51.66 51.73 51.79 51.85 51.79 51.74 51.68 51.38 51.30 51.28 51.13 51.18 51.20 51.08 51.00 51.06 50.73 49.66 52.17 46.99 38.56 40.73 44.13 44.88 42.07 42.44 42.17 37.07 41.57 40.67 44.62 44.24 40.10 38.82 38.91 39.97 44.50 44.79 48.14 47.51 47.72 47.37 47.05 49.35 48.11 45.66 59.42 59.84 55.39 61.99 65.11 64.91 64.99
51.53 51.77 51.78 51.74 51.77 51.66 51.77 51.80 51.61 51.00 50.96 51.01 50.83 50.56 50.34 50.36 50.63 50.68 47.69 53.35 50.76 42.95 41.99 46.96 47.80 48.82 48.15 47.01 43.22 43.95 41.61 40.97 44.22 42.14 43.97 43.92 42.12 45.15 46.58 42.02 51.20 45.52 49.82 49.16 51.63 52.24 59.97 59.71 62.99 64.38 64.12 63.67 64.66 65.08
51.72 51.79 51.49 51.54 51.48 51.50 51.50 51.17 50.58 50.48 50.55 50.53 50.47 50.22 50.33 50.26 50.34 49.86 49.63 49.86 48.40 42.68 42.48 44.34 44.38 49.45 51.36 50.55 50.09 42.30 43.48 45.59 45.14 47.80 43.30 44.95 43.46 47.65 43.83 46.82 49.84 52.84 53.46 52.32 52.95 55.74 60.31 61.22 62.23 63.92 64.53 64.58 65.61 66.40
51.41 51.09 51.02 51.05 51.13 51.35 51.20 50.79 50.64 50.45 50.31 50.22 50.15 50.00 49.91 49.89 49.58 49.71 49.60 51.66 46.53 43.32 37.30 41.54 50.30 48.02 51.98 51.54 50.80 49.15 46.72 48.76 50.59 47.76 42.99 44.36 43.50 49.41 45.63 46.90 46.90 50.39 51.33 51.21 53.75 61.24 60.80 61.35 62.50 63.30 64.31 66.04 66.04 67.61
51.25 50.89 50.84 51.12 51.16 51.48 51.05 50.60 50.50 50.43 50.14 50.01 49.92 50.07 50.07 50.38 50.04 49.33 49.88 50.41 50.81 42.49 37.83 40.34 46.09 49.40 50.94 52.78 50.05 50.46 48.27 46.46 47.63 44.27 41.70 43.22 47.93 47.01 49.35 48.77 48.07 51.00 49.04 48.61 52.93 52.91 54.14 60.36 62.17 63.85 63.12 63.57 64.88 65.31
51.34 51.44 51.40 51.54 51.43 51.36 51.44 51.37 50.67 50.52 50.35 50.29 50.18 49.86 49.94 50.22 50.37 47.91 43.18 49.97 51.00 48.44 39.95 35.95 46.74 47.15 49.92 50.03 50.67 48.57 48.40 47.18 46.25 44.11 42.53 45.82 50.31 46.79 44.66 45.11 48.73 50.57 52.25 55.32 52.08 55.40 53.78 59.63 59.79 60.66 59.63 60.98 62.72 62.66
51.15 51.40 51.38 51.46 51.34 51.40 51.30 51.28 51.22 51.29 51.44 51.31 51.29 51.01 50.33 50.18 48.98 45.28 43.64 46.27 48.42 48.52 40.16 35.97 38.59 47.55 50.59 51.90 49.25 48.44 49.73 47.31 46.93 45.38 44.29 45.67 47.97 48.46 47.83 43.85 47.71 51.09 53.78 55.62 55.56 55.48 52.66 53.13 54.42 57.80 57.61 58.19 58.05 59.32
51.06 51.13 51.05 51.30 51.52 51.39 51.36 51.27 51.40 51.46 51.52 51.52 51.38 51.68 51.29 50.44 49.24 45.48 48.89 48.82 49.20 44.36 41.24 34.87 36.59 41.46 50.92 47.49 45.19 49.85 46.23 46.80 46.75 45.31 47.26 45.55 48.41 48.97 43.55 47.33 50.05 51.18 52.10 54.80 55.26 55.05 53.54 54.80 55.69 55.51 56.94 57.25 56.57 56.90
50.82 50.82 50.83 50.70 51.06 51.45 51.49 51.25 51.28 51.31 51.53 51.63 51.75 51.88 50.50 48.16 45.12 48.87 50.11 49.45 49.57 43.73 36.73 35.35 34.87 34.66 48.59 47.44 49.04 47.37 50.28 43.66 48.86 44.89 45.07 46.31 44.65 42.49 46.16 49.16 47.78 48.94 49.50 51.18 52.87 54.26 54.24 54.08 55.32 55.57 55.51 54.02 53.95 56.35
50.97 50.67 50.67 50.64 50.77 50.62 50.60 50.56 50.82 51.10 51.09 51.36 51.43 48.33 45.79 51.21 52.34 51.95 47.70 42.17 40.31 40.15 37.93 32.67 37.68 37.77 46.31 46.57 45.58 44.63 46.59 43.90 40.21 43.73 47.08 41.18 41.65 46.90 50.39 49.71 49.63 49.66 49.74 51.57 50.64 51.24 53.48 52.77 52.97 54.15 53.62 54.05 53.34 52.73
50.48 50.42 50.52 50.59 50.65 50.56 50.44 50.43 51.21 51.22 50.93 51.91 48.12 47.40 51.18 53.00 49.80 46.31 42.23 38.90 38.82 35.61 39.02 39.35 42.86 43.81 48.48 43.70 44.32 48.16 44.82 44.41 37.22 42.01 40.83 37.64 37.56 43.75 49.72 50.25 51.23 50.89 50.68 50.08 50.27 51.62 52.94 54.02 54.37 54.22 55.55 55.77 55.97 53.92
50.64 50.57 50.62 50.74 50.99 50.88 50.59 50.78 51.22 51.43 51.36 48.70 47.75 50.81 51.34 48.71 45.41 40.97 38.97 42.15 41.28 40.20 45.30 44.58 46.11 48.44 47.12 49.59 44.73 46.49 42.09 43.31 37.35 47.24 40.62 35.66 40.25 48.37 50.41 51.25 51.44 51.96 52.02 52.78 53.79 53.62 54.65 54.42 54.95 55.94 56.11 56.47 56.76 58.16
50.19 50.27 50.22 50.34 50.75 50.94 50.88 50.72 51.26 50.86 50.76 52.25 49.52 47.55 45.53 46.18 39.13 35.40 34.12 37.99 40.29 45.13 46.55 47.47 45.65 47.48 49.05 49.26 46.02 45.54 40.80 41.38 47.63 40.19 35.07 38.61 45.07 48.37 50.59 52.73 53.65 54.59 54.81 55.65 55.50 55.92 56.15 56.85 57.87 57.77 57.39 57.80 57.87 58.16
49.99 49.99 50.17 50.53 50.95 50.98 50.49 50.51 51.37 52.13 52.08 47.97 45.53 38.66 43.54 41.12 41.20 39.20 40.78 42.79 47.97 48.43 48.69 49.15 49.04 46.31 48.75 46.65 47.26 42.53 45.44 45.59 38.18 35.38 33.56 40.35 45.84 49.04 52.33 54.51 54.26 53.88 54.66 54.53 54.72 55.56 56.75 56.25 56.37 56.88 57.67 58.39 58.08 57.24
50.05 49.89 49.99 51.26 51.18 50.59 50.26 50.67 51.18 54.58 52.05 47.84 47.79 39.71 42.44 47.34 48.71 49.52 48.41 48.18 51.47 51.66 49.80 50.59 49.71 49.52 47.21 46.54 48.86 45.97 41.67 36.27 36.97 35.14 40.67 46.34 48.71 50.36 53.31 55.37 54.70 53.49 53.88 53.81 55.35 55.42 55.59 55.89 55.86 56.31 57.20 57.09 57.17 57.24
50.12 50.21 52.82 51.32 51.09 50.53 49.99 53.09 55.88 57.46 54.75 51.19 48.36 45.48 48.00 46.59 47.24 49.05 50.94 49.42 53.09 50.90 51.97 50.90 46.95 45.57 45.06 45.18 42.05 40.11 39.13 37.25 41.17 45.89 48.74 50.56 51.65 53.68 54.88 55.92 55.37 56.59 55.68 55.90 55.58 57.01 55.81 56.31 56.11 56.57 58.09 57.97 57.62 57.87
49.75 52.94 51.02 51.01 50.76 50.18 52.11 54.47 55.74 50.86 49.05 47.10 46.19 49.95 48.57 48.55 48.34 49.50 50.08 51.15 54.48 52.53 47.25 47.64 42.97 42.85 47.73 40.93 39.68 43.06 39.71 43.14 46.59 49.08 51.19 51.69 51.89 53.47 54.18 57.65 56.61 56.08 56.22 54.93 55.41 55.57 56.75 53.64 57.47 58.45 57.59 57.79 57.41 58.23
52.57 54.66 51.71 50.77 50.82 52.99 57.03 55.77 53.07 49.52 45.40 48.21 46.68 49.08 50.24 51.85 49.31 51.20 53.13 54.57 53.01 51.75 50.86 46.74 49.12 42.81 40.76 39.64 41.50 45.70 48.16 50.67 52.81 53.17 54.49 56.75 56.19 57.66 56.73 56.91 57.36 57.53 57.46 57.27 54.17 57.99 55.30 53.69 56.19 54.65 56.95 58.00 57.96 56.69
51.31 51.47 50.33 50.42 51.36 50.43 51.93 51.56 53.20 46.30 47.46 49.70 50.46 51.43 51.76 52.40 52.11 54.06 54.51 55.11 54.85 53.72 51.39 48.22 44.72 42.90 44.51 48.39 48.95 50.69 52.07 52.20 49.42 54.65 56.47 57.70 58.75 58.18 57.94 57.35 58.25 57.42 57.05 56.86 55.51 54.73 55.03 57.58 55.34 54.78 55.01 55.03 54.10 54.85
49.91 50.52 51.09 51.07 51.08 53.34 49.38 51.11 54.32 48.76 46.21 48.66 51.08 50.85 49.73 50.77 52.38 52.48 52.55 52.53 52.04 50.55 47.90 46.39 46.72 49.72 50.77 52.77 54.87 54.91 54.70 55.79 54.26 53.16 53.26 51.95 53.97 56.95 56.89 56.32 54.13 58.70 56.20 57.35 54.85 49.87 54.13 53.39 53.39 53.81 53.27 53.65 53.20 52.92
51.74 55.26 52.48 54.24 55.61 54.23 51.73 50.36 49.86 50.81 50.13 48.75 51.48 51.29 50.07 52.37 49.88 49.30 48.57 51.23 48.55 46.37 47.06 50.00 50.42 52.44 54.79 54.56 54.49 55.77 56.14 54.53 54.72 52.51 52.55 53.18 52.56 54.02 53.88 54.39 55.34 53.96 52.72 51.87 51.41 51.37 50.60 50.64 50.97 51.17 51.18 51.39 51.60 52.02
55.85 52.10 55.84 56.81 53.77 53.18 52.37 54.69 51.20 52.38 50.92 50.95 50.49 50.91 48.63 46.95 47.54 48.32 51.08 48.53 48.43 50.42 53.38 50.84 51.15 51.59 52.13 52.92 52.65 53.47 54.05 56.55 57.01 54.11 51.13 52.29 51.62 51.68 51.82 52.25 52.02 51.33 51.35 50.75 50.40 49.89 50.15 50.28 50.05 50.49 50.97 50.50 49.93 51.25
53.08 53.01 56.03 55.66 50.92 47.08 47.03 55.31 49.29 50.52 47.03 48.34 50.30 47.82 47.78 48.76 50.29 52.83 47.97 50.01 51.54 56.05 55.91 53.39 54.43 56.16 54.35 55.32 53.75 52.51 53.08 53.15 52.09 51.37 51.62 51.03 52.25 52.68 52.32 52.34 51.62 50.50 49.38 49.71 50.34 49.70 49.49 46.99 49.16 49.95 50.82 50.37 50.37 49.90
49.24 53.11 51.33 51.46 51.80 46.14 52.73 50.39 53.29 50.27 49.88 48.80 48.34 45.55 47.38 49.17 51.28 46.58 42.86 46.61 49.36 51.86 51.37 52.37 51.70 51.06 51.35 52.62 49.15 49.28 49.66 50.28 49.43 49.97 50.17 49.47 48.50 49.43 50.68 50.37 50.49 50.44 50.10 49.92 49.35 48.84 48.79 48.84 46.64 49.54 49.69 49.07 49.05 48.42
46.41 46.05 49.92 41.27 53.11 50.29 47.99 47.85 48.51 49.01 46.30 47.78 46.76 47.03 48.51 51.83 46.28 43.26 42.77 43.93 46.98 48.57 49.35 50.40 50.48 49.95 48.24 48.23 48.46 48.27 51.13 47.95 46.90 46.99 48.47 49.38 49.32 48.90 48.25 48.60 48.74 47.95 48.44 47.10 46.62 47.20 47.87 48.31 48.01 48.24 48.16 47.56 46.97 47.04
41.51 51.06 45.56 50.30 50.25 48.81 48.75 46.68 47.41 47.11 47.90 46.13 45.97 50.01 51.47 46.17 42.38 39.53 41.84 44.61 46.05 47.27 48.08 48.59 48.59 48.19 47.86 48.14 46.65 46.22 46.17 47.18 46.80 45.34 46.78 48.35 47.55 46.18 44.87 44.06 43.89 43.95 46.39 47.14 46.66 45.81 45.97 46.41 46.11 45.68 45.31 45.15 42.66 44.98
44.35 49.76 53.53 56.60 53.84 52.49 50.56 51.30 51.56 49.66 46.58 45.38 47.14 47.52 47.32 41.12 38.29 40.68 44.22 47.80 47.43 49.15 50.82 50.13 48.83 47.57 46.56 46.17 46.93 47.27 46.81 46.34 45.49 44.82 46.87 48.00 46.89 45.91 44.40 42.46 41.53 42.39 45.06 45.37 44.72 44.22 43.70 43.64 42.97 42.64 42.68 43.63 44.37 44.43
53.53 54.44 49.13 51.28 51.88 51.60 48.88 48.75 46.69 45.99 47.42 50.70 49.94 43.64 41.46 40.66 39.78 46.11 48.10 51.26 51.19 51.37 51.07 50.96 49.98 48.31 46.91 46.80 46.61 45.96 45.27 44.96 44.64 44.42 44.60 45.16 45.06 44.30 44.18 44.13 44.47 39.66 44.09 44.43 43.68 43.74 43.19 42.11 41.60 41.54 41.60 41.68 42.58 43.38
51.23 53.38 51.94 50.19 51.08 50.05 50.07 48.54 47.42 50.14 52.10 51.01 47.60 45.26 44.73 47.86 49.65 51.01 51.49 51.83 52.28 51.01 48.42 48.11 47.76 47.69 46.51 46.32 45.96 45.41 44.82 43.42 40.35 37.95 37.15 37.65 38.73 39.90 42.71 42.98 42.83 42.95 43.03 42.91 40.18 40.33 41.74 41.43 41.66 41.45 41.55 41.33 41.29 41.30
52.40 52.10 51.06 51.06 49.18 47.28 48.92 52.16 50.74 52.36 52.62 51.76 50.64 49.06 48.53 49.41 51.85 53.38 51.54 50.29 49.00 48.14 48.27 47.84 46.90 45.37 43.47 43.11 42.66 43.01 44.06 43.59 41.59 38.40 35.40 36.03 37.80 40.58 41.46 41.31 41.42 41.78 42.10 42.13 41.88 41.96 39.91 41.11 40.00 40.64 39.79 39.43 39.08 38.36
55.74 53.93 52.12 51.26 49.22 51.44 52.90 53.63 53.65 53.21 52.31 50.93 51.60 48.58 47.66 48.80 51.88 52.56 50.39 50.27 49.41 48.54 46.80 45.73 45.04 44.79 43.38 42.62 41.82 40.87 39.84 43.04 41.71 40.44 39.13 39.67 39.94 40.25 40.82 41.45 41.68 42.14 41.49 41.34 40.97 40.52 39.91 39.27 38.92 38.14 37.72 37.38 37.60 37.06
54.42 51.86 51.34 48.73 50.77 54.07 55.26 54.84 54.22 51.52 50.08 51.45 48.90 49.23 48.75 48.10 46.28 50.66 50.72 50.05 47.83 46.50 44.36 45.78 44.46 43.87 44.90 44.80 44.33 43.72 40.13 42.86 41.40 40.46 39.78 39.22 39.45 39.97 40.50 41.19 40.92 41.00 40.66 40.17 39.74 39.47 38.85 38.10 37.37 37.09 36.93 36.70 36.68 36.45
53.19 52.77 52.29 51.34 51.28 51.57 54.05 53.13 51.86 50.03 49.80 49.58 49.05 48.91 48.34 46.65 43.12 47.32 50.76 50.94 48.40 46.77 45.97 45.82 46.75 46.62 46.12 44.92 43.89 43.48 42.60 42.43 38.30 34.58 34.04 33.60 32.98 35.05 38.83 40.62 40.31 40.15 39.77 39.35 39.07 38.57 37.90 37.60 37.29 37.34 37.20 37.21 36.99 37.17
MSLP
1020.64 1020.00 1019.29 1018.59 1017.92 1017.23 1016.56 1015.92 1015.28 1014.83 1014.46 1014.04 1013.65 1013.40 1013.15 1012.96 1012.99 1013.12 1012.33 1012.49 1012.88 1012.50 1010.64 1009.61 1008.45 1007.57 1006.86 1006.07 1005.59 1006.11 1005.13 1003.15 1001.90 1002.00 1002.31 1001.70 1000.16 996.01 993.85 991.60 990.04 989.17 988.76 988.20 988.22 987.52 986.99 986.05 986.14 986.27 987.26 987.54 987.60 987.74
1020.31 1019.71 1019.12 1018.51 1017.91 1017.16 1016.47 1015.84 1015.19 1014.73 1014.30 1013.85 1013.46 1013.22 1013.04 1012.89 1012.72 1012.61 1012.25 1011.79 1012.04 1011.80 1010.44 1009.23 1008.13 1007.12 1006.15 1005.57 1005.74 1005.01 1004.87 1005.25 1003.90 1003.41 1002.69 1001.72 1000.06 998.53 996.17 993.95 992.82 992.07 990.55 989.83 988.74 988.09 987.99 988.77 988.85 987.95 987.69 987.98 988.17 988.47
1020.07 1019.49 1018.96 1018.39 1017.82 1017.17 1016.44 1015.82 1015.29 1014.78 1014.36 1013.98 1013.59 1013.26 1012.96 1012.70 1012.49 1012.45 1011.98 1012.06 1011.92 1011.51 1009.76 1007.36 1005.51 1004.70 1004.57 1004.19 1004.66 1004.51 1003.95 1003.96 1003.99 1004.78 1004.60 1002.80 1001.21 999.98 998.17 996.35 994.51 993.43 993.64 992.28 990.43 989.23 988.16 988.59 988.90 989.15 988.67 988.51 988.71 988.58
1020.00 1019.40 1018.85 1018.28 1017.72 1017.12 1016.51 1015.91 1015.36 1014.86 1014.42 1013.93 1013.41 1013.04 1012.73 1012.48 1012.31 1012.10 1011.84 1011.65 1011.84 1011.31 1009.68 1005.71 1003.51 1002.99 1002.44 1002.07 1002.64 1003.05 1003.36 1003.45 1003.80 1004.36 1004.44 1003.27 1001.71 1000.60 999.66 998.98 998.56 997.68 996.69 995.15 992.45 990.60 990.18 989.79 989.42 989.46 989.43 989.21 989.49 989.87
1019.95 1019.33 1018.72 1018.19 1017.61 1017.02 1016.41 1015.82 1015.21 1014.69 1014.21 1013.67 1013.20 1012.85 1012.63 1012.30 1012.06 1011.77 1010.92 1010.67 1011.04 1011.49 1009.50 1006.36 1004.75 1002.12 1001.16 1001.14 1001.00 1001.65 1002.37 1002.91 1003.71 1004.33 1004.94 1003.69 1002.31 1001.81 1000.34 1000.31 999.36 999.14 998.75 997.68 995.33 994.40 994.67 991.15 990.87 990.41 990.72 990.61 990.98 991.43
1019.81 1019.15 1018.57 1018.04 1017.46 1016.84 1016.21 1015.54 1015.05 1014.52 1013.97 1013.41 1012.91 1012.69 1012.45 1012.20 1011.89 1011.18 1010.58 1010.43 1010.51 1010.95 1010.08 1007.48 1003.10 1001.92 1001.21 1001.92 1000.80 1001.03 1001.78 1002.38 1002.78 1004.33 1004.94 1004.15 1002.79 1002.59 1001.88 1000.64 1000.21 999.95 999.67 999.13 998.38 996.64 995.46 992.60 991.99 991.89 992.12 992.08 992.19 992.49
1019.75 1019.12 1018.54 1017.93 1017.34 1016.71 1015.97 1015.39 1014.72 1014.05 1013.38 1012.88 1012.43 1012.18 1011.92 1011.93 1011.60 1011.05 1010.66 1010.52 1010.62 1010.61 1010.23 1008.22 1005.24 1002.78 1001.88 1000.70 1000.25 1000.86 1001.20 1001.68 1002.41 1003.81 1004.31 1003.85 1003.24 1002.81 1001.33 1000.43 1000.49 999.53 999.32 999.03 998.76 998.24 999.13 996.05 994.87 994.46 993.74 993.83 994.02 994.14
1019.65 1019.06 1018.46 1017.79 1017.15 1016.41 1015.75 1014.94 1014.23 1013.44 1012.70 1012.15 1011.66 1011.28 1011.07 1011.19 1010.99 1010.32 1009.66 1009.91 1010.15 1010.47 1010.56 1009.27 1006.74 1004.40 1002.53 1001.20 1000.66 1001.17 1001.79 1002.41 1002.57 1002.86 1003.63 1003.40 1002.65 1001.95 1001.38 1001.10 1000.91 1000.96 999.94 998.84 999.48 999.14 999.00 999.11 997.82 996.41 996.29 995.85 995.96 995.96
1019.49 1018.85 1018.22 1017.57 1016.89 1015.99 1015.38 1014.50 1013.70 1012.80 1011.76 1011.09 1010.96 1010.58 1010.39 1010.39 1009.56 1009.18 1009.40 1009.79 1010.13 1010.79 1010.13 1009.40 1007.51 1005.31 1003.30 1002.29 1001.51 1001.86 1002.19 1002.18 1002.46 1002.93 1003.34 1003.38 1002.71 1002.27 1002.00 1001.56 1001.79 1001.38 1000.66 1000.11 999.54 999.06 999.37 999.31 999.12 998.78 998.19 998.39 998.47 998.29
1019.15 1018.57 1017.91 1017.14 1016.45 1015.58 1014.74 1013.95 1013.15 1011.99 1010.87 1010.18 1009.73 1009.33 1008.71 1008.34 1008.92 1009.23 1009.57 1009.77 1010.09 1010.07 1009.91 1008.60 1007.75 1005.41 1003.84 1002.34 1001.47 1001.75 1002.09 1002.26 1002.70 1003.22 1003.51 1003.65 1003.31 1002.72 1002.13 1002.24 1002.41 1002.30 1001.59 1000.70 1000.03 999.77 999.43 999.06 999.08 999.21 1000.19 1000.05 1000.04 999.44
1018.95 1018.23 1017.49 1016.64 1015.83 1015.15 1014.20 1013.34 1012.58 1011.60 1009.85 1009.01 1008.98 1007.85 1007.62 1007.91 1008.29 1008.47 1008.19 1008.39 1008.28 1008.11 1007.58 1006.66 1005.50 1004.03 1003.77 1002.97 1001.73 1001.79 1001.81 1002.16 1002.76 1003.17 1003.62 1004.30 1004.08 1003.75 1003.09 1002.87 1002.85 1002.48 1002.01 1001.64 1001.03 1000.51 1000.30 1000.67 1000.67 1000.57 1000.57 1000.71 1000.78 1001.20
1018.58 1017.97 1017.06 1016.28 1015.48 1014.68 1013.69 1012.83 1012.28 1011.38 1010.29 1010.87 1010.72 1009.11 1008.15 1007.45 1007.52 1007.74 1007.43 1006.91 1006.32 1005.57 1004.67 1003.93 1003.66 1002.88 1003.24 1002.93 1002.58 1002.28 1002.14 1002.44 1002.63 1003.00 1003.96 1005.17 1004.90 1003.94 1003.79 1003.62 1003.21 1002.63 1002.20 1001.80 1001.42 1001.12 1001.10 1001.20 1000.90 1001.08 1000.95 1001.17 1000.52 1001.26
1018.15 1017.37 1016.68 1015.83 1015.05 1014.19 1013.37 1012.58 1011.82 1011.59 1010.67 1009.81 1009.70 1008.15 1007.13 1007.27 1007.04 1006.96 1007.11 1006.42 1005.23 1004.13 1002.82 1002.31 1002.24 1002.64 1002.41 1002.44 1002.20 1001.87 1002.06 1002.34 1002.89 1003.98 1005.69 1005.92 1005.27 1004.65 1003.80 1002.85 1002.34 1002.30 1002.30 1001.49 1001.13 1001.10 1001.19 1001.14 1001.28 1001.34 1001.25 1001.46 1000.72 1000.61
1017.71 1016.74 1016.02 1015.28 1014.60 1013.79 1012.75 1012.15 1011.51 1010.99 1010.49 1009.02 1008.38 1007.83 1007.08 1006.43 1006.06 1005.85 1005.94 1005.20 1003.57 1002.43 1001.21 1000.40 1001.08 1001.18 1001.05 1001.31 1001.42 1001.57 1002.27 1002.79 1004.24 1005.50 1006.72 1006.33 1005.37 1004.38 1003.29 1001.69 1001.30 1001.30 1001.33 1001.01 1000.80 1000.54 1000.63 1000.64 1001.01 1001.19 1001.33 1001.34 1001.16 1001.28
1017.16 1016.01 1015.23 1014.58 1014.01 1013.05 1012.26 1011.43 1011.12 1010.70 1009.43 1008.34 1007.94 1007.98 1007.29 1006.08 1004.48 1003.62 1003.75 1003.56 1002.48 1002.18 1000.81 999.88 999.71 1000.08 1000.07 1000.25 1000.98 1001.65 1002.78 1004.58 1005.97 1006.64 1006.57 1005.95 1005.35 1004.71 1003.27 1002.36 1001.87 1001.69 1001.52 1001.41 1001.31 1001.39 1001.48 1001.36 1001.32 1001.26 1001.40 1001.53 1001.72 1001.63
1016.78 1015.25 1014.58 1013.78 1013.35 1012.58 1011.42 1010.51 1010.00 1008.75 1008.14 1007.79 1007.45 1007.21 1006.69 1006.12 1004.52 1003.55 1002.29 1001.14 999.80 1000.19 999.93 999.79 1000.23 1000.71 1001.37 1002.67 1003.37 1004.36 1005.11 1006.12 1006.60 1006.43 1006.19 1005.74 1004.93 1004.08 1003.30 1002.79 1002.52 1002.22 1001.91 1001.74 1001.70 1001.44 1001.45 1001.39 1001.48 1001.50 1001.63 1001.87 1002.02 1002.07
1016.44 1014.50 1014.03 1013.76 1013.11 1012.10 1010.56 1010.41 1007.99 1007.35 1007.29 1007.61 1007.50 1007.56 1006.97 1006.28 1005.30 1003.80 1002.79 1001.32 1000.57 1000.12 1000.17 1000.72 1002.27 1002.91 1003.37 1004.91 1005.74 1006.30 1007.05 1007.36 1006.83 1006.54 1006.20 1005.73 1005.29 1004.52 1003.89 1003.29 1003.06 1002.83 1002.82 1002.83 1002.50 1002.12 1002.29 1002.24 1001.91 1002.05 1002.19 1002.23 1002.39 1002.41
1015.41 1014.26 1014.38 1014.19 1013.64 1011.71 1009.76 1009.37 1008.31 1007.55 1007.60 1007.51 1007.54 1007.66 1007.45 1006.88 1006.23 1004.79 1003.23 1002.34 1001.75 1001.50 1001.76 1002.45 1003.82 1005.03 1005.61 1006.00 1006.67 1007.22 1007.18 1007.02 1006.71 1006.22 1005.89 1005.50 1005.00 1004.48 1004.05 1003.69 1003.52 1003.27 1003.31 1003.24 1002.99 1002.72 1003.20 1003.02 1002.53 1002.50 1002.37 1002.41 1002.39 1002.58
1015.64 1015.28 1014.82 1014.07 1014.11 1013.41 1010.21 1009.61 1009.33 1008.12 1007.96 1007.93 1008.37 1008.34 1007.58 1007.08 1006.77 1005.52 1004.91 1003.76 1003.59 1003.48 1003.52 1004.29 1005.67 1006.79 1007.36 1007.65 1007.54 1007.25 1007.11 1007.11 1006.90 1006.56 1005.93 1005.64 1005.07 1004.30 1003.92 1003.87 1003.92 1003.87 1003.72 1003.54 1003.49 1003.14 1003.38 1003.44 1003.12 1003.03 1003.01 1002.95 1002.92 1003.14
1015.11 1014.79 1014.36 1013.45 1013.48 1011.92 1010.32 1009.86 1009.33 1009.04 1008.70 1009.14 1009.11 1008.69 1009.32 1008.56 1008.11 1007.36 1006.84 1006.11 1005.77 1005.73 1006.15 1007.14 1008.06 1008.79 1008.67 1008.53 1008.16 1007.84 1007.48 1007.16 1006.66 1006.34 1006.53 1006.42 1005.70 1004.74 1004.48 1004.18 1004.18 1004.04 1004.05 1003.95 1004.05 1004.25 1003.94 1003.99 1004.13 1003.98 1003.94 1003.71 1003.19 1003.23
1014.17 1013.71 1013.22 1012.67 1011.85 1011.45 1010.96 1010.34 1009.61 1009.75 1009.58 1009.91 1009.95 1009.93 1010.25 1009.87 1009.32 1008.94 1008.89 1008.92 1008.36 1008.93 1009.01 1009.42 1009.50 1009.55 1009.22 1008.90 1008.55 1007.90 1007.39 1006.93 1006.83 1006.41 1006.31 1006.79 1006.61 1005.90 1005.53 1005.01 1004.69 1004.40 1004.54 1004.76 1004.76 1004.77 1004.91 1005.04 1005.36 1005.37 1004.80 1004.40 1004.43 1004.16
1014.14 1014.03 1013.17 1012.14 1011.63 1011.35 1010.76 1010.46 1010.16 1009.86 1009.93 1010.01 1010.04 1010.46 1010.88 1010.87 1010.77 1010.56 1010.40 1009.86 1010.18 1010.85 1010.59 1009.86 1009.64 1009.44 1009.55 1009.49 1009.12 1008.69 1008.14 1007.23 1006.81 1006.64 1006.69 1006.11 1005.98 1005.59 1005.43 1005.42 1005.33 1005.38 1005.60 1005.84 1005.91 1005.75 1005.92 1006.20 1006.45 1005.98 1005.29 1005.34 1005.03 1004.77
1014.45 1014.33 1012.79 1011.86 1011.62 1011.59 1011.04 1010.23 1010.25 1010.20 1009.86 1010.09 1010.48 1010.80 1011.33 1011.53 1011.78 1011.57 1011.78 1012.39 1012.15 1011.50 1010.98 1010.63 1010.37 1010.24 1009.97 1009.94 1009.97 1009.89 1009.20 1008.37 1007.70 1007.65 1007.63 1006.93 1006.50 1006.25 1005.95 1005.72 1005.80 1006.09 1006.49 1006.83 1006.84 1006.79 1006.91 1007.07 1006.82 1006.43 1006.10 1006.12 1005.77 1005.62
1015.08 1013.86 1012.74 1011.86 1011.21 1011.11 1010.40 1009.91 1009.94 1010.01 1009.92 1010.04 1010.43 1010.95 1011.45 1011.86 1012.08 1012.71 1013.41 1013.34 1012.92 1011.86 1011.73 1011.59 1011.23 1010.68 1010.55 1010.53 1010.42 1010.64 1010.50 1009.56 1009.00 1008.68 1008.79 1008.21 1007.80 1007.48 1007.20 1007.10 1007.20 1007.68 1007.91 1008.00 1008.28 1008.22 1007.95 1007.62 1007.22 1006.68 1006.44 1006.33 1006.20 1006.32
1014.62 1013.73 1012.71 1012.05 1010.92 1010.50 1009.75 1009.40 1009.33 1009.33 1009.83 1009.76 1010.13 1010.80 1011.51 1011.88 1012.24 1013.63 1014.27 1014.26 1013.52 1013.11 1013.00 1012.60 1011.99 1011.55 1011.32 1011.18 1010.98 1011.03 1011.17 1010.74 1010.33 1009.70 1009.37 1008.75 1008.42 1008.49 1008.76 1008.81 1008.80 1009.57 1009.72 1009.47 1009.10 1008.65 1008.27 1008.12 1007.86 1007.54 1007.40 1007.65 1007.82 1007.55
1013.52 1012.36 1012.05 1011.05 1010.59 1010.37 1010.14 1009.86 1009.85 1009.89 1010.02 1010.25 1010.79 1010.91 1011.47 1012.50 1013.44 1014.95 1015.62 1015.22 1014.53 1014.41 1013.95 1013.34 1012.89 1012.56 1012.27 1012.05 1011.74 1011.55 1011.91 1011.95 1011.66 1011.16 1010.56 1009.81 1009.82 1010.22 1010.55 1010.49 1010.45 1010.86 1011.07 1010.39 1009.96 1009.74 1009.46 1009.26 1009.01 1008.95 1008.84 1008.74 1008.65 1008.48
1012.30 1011.51 1010.90 1010.98 1010.50 1010.13 1010.24 1010.13 1009.94 1010.26 1010.67 1011.05 1011.44 1011.33 1011.37 1013.09 1014.81 1016.09 1016.23 1015.28 1014.78 1014.57 1014.26 1014.02 1013.55 1012.97 1012.47 1012.39 1012.26 1012.35 1012.78 1012.82 1012.87 1012.63 1011.59 1010.87 1011.20 1011.81 1012.18 1012.09 1012.06 1012.55 1011.93 1011.36 1011.33 1011.00 1010.61 1010.41 1010.37 1010.26 1009.93 1009.51 1009.07 1008.83
1010.56 1010.56 1011.12 1010.87 1010.22 1010.71 1010.92 1010.54 1010.77 1010.81 1011.12 1011.68 1011.79 1011.98 1013.04 1014.26 1015.25 1015.50 1015.39 1015.01 1014.53 1014.28 1013.87 1013.67 1013.12 1013.18 1013.15 1013.07 1013.08 1013.14 1013.53 1013.87 1013.99 1013.83 1013.03 1012.39 1012.71 1013.20 1013.53 1013.23 1013.04 1013.05 1012.61 1012.46 1012.34 1011.94 1011.78 1011.78 1011.52 1011.04 1010.70 1010.31 1009.98 1010.07
1010.78 1010.98 1011.34 1010.79 1010.08 1010.42 1010.89 1011.23 1011.50 1011.56 1011.57 1011.23 1012.24 1013.16 1014.49 1015.31 1015.36 1015.18 1014.98 1014.64 1014.35 1013.90 1013.32 1012.97 1013.27 1013.72 1013.87 1013.82 1013.97 1014.18 1014.29 1014.79 1015.24 1015.09 1014.83 1014.38 1014.27 1014.38 1014.36 1014.04 1013.75 1013.46 1013.20 1012.84 1012.54 1012.61 1012.63 1012.31 1012.04 1011.69 1011.46 1011.32 1011.29 1011.35
1009.95 1010.78 1011.10 1010.22 1010.09 1010.88 1011.88 1011.79 1012.28 1012.53 1012.74 1013.18 1013.86 1014.46 1014.89 1015.07 1015.22 1015.10 1014.76 1013.98 1013.57 1013.28 1013.55 1013.78 1014.00 1014.52 1014.76 1014.74 1014.86 1015.13 1015.16 1015.63 1016.49 1016.83 1016.73 1016.12 1015.79 1015.63 1015.27 1014.88 1014.58 1014.22 1013.89 1013.39 1012.84 1012.55 1012.71 1012.55 1012.38 1012.31 1012.32 1012.22 1012.17 1012.11
1008.65 1008.68 1009.34 1009.62 1010.40 1010.87 1011.77 1012.22 1012.50 1012.98 1013.08 1013.37 1013.65 1014.19 1014.67 1015.46 1015.70 1015.20 1014.69 1014.37 1014.11 1013.97 1014.36 1014.53 1014.78 1015.34 1015.83 1015.83 1015.97 1015.98 1016.27 1016.39 1017.38 1017.88 1018.17 1017.55 1017.06 1016.75 1016.26 1015.68 1015.32 1014.88 1014.57 1014.13 1013.68 1013.41 1013.49 1013.31 1013.18 1013.19 1013.04 1012.96 1012.94 1012.73
1008.22 1008.33 1008.76 1009.36 1009.85 1010.76 1011.38 1011.58 1012.13 1012.60 1013.10 1013.32 1013.60 1014.23 1014.95 1015.61 1015.38 1015.18 1014.66 1014.48 1014.22 1014.27 1014.91 1014.83 1015.05 1015.40 1016.12 1016.51 1016.60 1016.72 1017.12 1017.02 1017.75 1018.32 1018.44 1018.27 1018.03 1017.72 1017.23 1016.51 1016.27 1015.80 1015.32 1014.74 1014.48 1014.26 1014.25 1014.09 1013.94 1013.81 1013.59 1013.33 1013.13 1012.93
1008.11 1008.25 1008.54 1008.71 1009.46 1009.78 1010.52 1011.35 1011.95 1012.20 1012.35 1012.81 1013.43 1013.92 1014.08 1014.63 1015.00 1014.85 1014.77 1014.71 1014.85 1015.05 1015.47 1015.60 1015.35 1015.77 1016.39 1016.82 1017.21 1017.18 1016.97 1017.71 1018.25 1018.60 1018.65 1018.60 1018.49 1018.33 1017.94 1017.47 1017.20 1016.58 1015.89 1015.26 1015.01 1014.85 1014.62 1014.45 1014.23 1014.07 1013.84 1013.58 1013.41 1013.06
Wind_Speed
21 21 20 20 20 19 18 18 17 14 13 14 12 11 9 7 8 7 6 7 6 5 11 17 21 21 17 15 10 4 8 5 8 5 6 6 10 11 13 11 12 8 9 12 14 16 14 6 8 11 5 8 7 7
20 20 20 19 18 18 17 17 15 14 13 13 11 7 8 9 10 7 6 6 6 5 8 19 22 23 24 19 14 14 7 7 5 4 3 4 6 5 6 12 18 18 15 12 12 10 9 10 13 6 3 3 5 5
20 17 17 16 17 18 18 16 14 14 13 12 11 11 11 11 9 6 6 5 4 3 10 16 17 23 25 27 20 15 11 8 7 3 1 4 6 3 2 7 12 15 17 9 14 13 5 14 15 5 3 6 1 6
16 16 16 15 17 17 16 16 15 14 14 13 12 10 10 7 6 7 5 4 1 4 5 13 13 12 14 17 23 22 18 17 3 1 3 4 4 5 3 7 7 3 11 13 11 10 10 8 11 9 8 10 11 14
15 15 16 16 16 16 16 16 16 15 14 13 13 12 11 10 10 9 7 7 6 3 5 12 24 25 15 12 16 20 15 15 4 1 1 4 2 5 3 3 6 5 4 5 6 17 17 13 10 14 15 15 15 15
16 16 17 17 16 16 17 16 16 16 16 15 15 13 12 11 9 5 3 4 2 3 4 5 12 13 7 14 14 13 11 11 8 4 1 4 4 3 4 3 3 6 14 9 9 7 18 2 19 19 18 15 16 16
17 18 17 17 17 17 17 17 17 18 18 18 17 16 14 9 7 4 5 0 6 6 2 6 7 7 14 9 10 5 11 7 3 3 5 3 3 4 4 3 8 12 14 6 9 9 7 19 15 15 18 17 17 16
16 17 17 18 17 17 17 19 20 21 22 20 17 14 13 10 10 7 4 4 2 2 2 4 6 7 2 6 8 4 4 3 6 3 2 3 2 4 3 4 6 6 6 12 13 15 15 10 14 20 19 17 18 16
16 17 17 17 18 20 20 21 22 24 24 24 19 11 5 5 3 2 10 7 3 1 2 2 4 4 7 3 2 3 3 6 2 1 2 3 2 1 6 5 10 8 4 6 11 14 14 12 12 14 17 19 17 15
16 17 19 20 21 22 23 23 24 25 26 24 7 5 4 2 15 12 4 3 3 4 4 4 3 5 3 5 5 3 2 3 2 3 2 3 2 5 11 9 7 6 9 8 12 15 14 18 16 17 13 9 10 14
16 18 20 21 22 22 23 23 22 23 18 3 3 3 6 12 2 2 3 3 3 3 5 5 7 1 2 5 3 3 2 3 2 2 2 4 5 7 7 7 4 5 8 9 11 9 12 11 9 9 8 9 9 10
18 19 21 21 21 22 23 23 19 11 7 7 7 8 4 2 3 2 3 4 4 4 3 3 3 2 2 2 1 2 1 1 3 1 4 3 6 10 6 3 7 7 9 7 8 10 10 9 7 5 6 7 6 3
21 22 22 22 20 19 20 20 17 11 14 5 5 4 2 1 3 4 7 4 5 4 4 4 2 1 2 3 4 2 4 5 3 5 4 2 5 8 9 7 6 6 8 6 6 5 2 2 4 7 8 6 7 7
22 24 23 22 17 18 21 18 16 8 5 3 6 8 9 7 4 5 6 5 6 7 9 7 6 6 6 6 3 3 2 5 5 5 3 4 9 12 13 6 8 10 8 7 8 12 14 11 8 8 6 5 9 8
23 27 25 13 14 22 23 20 15 5 4 4 5 7 6 9 13 7 8 4 2 8 10 9 3 5 6 4 5 4 6 7 6 3 2 4 8 9 4 10 12 11 9 8 11 11 9 8 10 9 8 7 8 9
22 27 3 15 23 25 26 16 5 5 3 1 3 11 11 13 14 16 15 13 13 5 1 3 6 5 9 7 8 10 5 6 3 1 3 3 4 8 8 10 9 8 9 9 7 8 7 8 7 6 7 7 6 5
22 5 18 23 26 27 12 4 4 3 5 4 8 10 10 11 10 12 11 12 10 11 12 6 8 8 6 7 5 6 4 1 3 3 3 6 5 5 6 7 8 9 10 14 10 7 15 8 6 6 5 2 5 5
7 13 18 22 19 14 2 3 6 4 6 6 9 12 11 13 11 13 14 12 12 10 12 10 5 7 5 4 3 3 2 2 2 4 5 6 7 7 6 6 6 9 10 5 3 5 15 9 5 6 6 5 5 6
15 15 21 23 10 5 4 4 5 5 7 8 9 8 11 10 8 11 14 11 12 10 10 6 8 7 7 7 9 9 8 7 3 3 4 7 5 6 6 6 8 7 7 9 11 7 8 7 9 8 8 4 6 7
23 17 16 18 3 5 5 2 3 4 5 8 9 10 9 10 13 12 13 13 12 11 12 9 9 10 9 8 8 7 8 6 6 7 9 7 9 7 9 8 5 3 3 5 7 10 8 9 9 10 10 9 7 8
8 6 9 4 4 3 4 5 4 2 5 5 4 7 5 9 12 14 13 10 11 6 8 7 8 7 8 9 8 7 7 7 5 8 7 8 2 4 6 6 7 7 8 9 9 8 10 9 9 9 8 8 9 8
6 10 5 0 3 5 3 2 4 5 1 3 5 6 4 6 8 8 8 10 7 5 6 9 9 10 10 13 14 16 15 10 9 6 5 3 6 8 7 6 7 8 9 9 8 8 8 8 7 8 8 8 9 8
12 5 4 1 3 2 4 4 4 6 4 2 3 3 3 3 3 1 4 7 5 4 4 5 4 8 11 11 13 15 17 15 10 10 11 11 7 7 6 6 6 6 6 8 9 10 9 9 7 8 7 8 7 9
3 5 5 6 2 2 3 2 2 1 0 3 3 3 3 3 3 4 3 4 4 7 10 12 11 9 10 12 11 11 11 11 11 9 9 9 9 10 10 10 10 11 10 10 9 8 8 9 10 9 8 8 8 6
4 5 1 5 3 5 2 3 3 3 4 3 3 3 3 0 2 4 3 7 9 11 12 12 11 11 11 10 9 10 12 12 11 12 11 11 7 9 10 10 11 13 12 10 10 11 10 10 11 13 13 12 12 12
2 2 3 8 5 5 6 7 6 5 5 3 3 2 3 4 5 4 3 7 8 8 9 9 10 10 10 10 10 10 11 12 11 10 10 11 12 11 11 11 11 12 12 12 12 14 14 13 13 15 12 13 13 11
3 5 2 2 5 3 4 4 5 5 7 6 3 5 0 5 4 2 4 4 5 4 6 7 7 6 8 9 9 10 11 12 13 12 12 11 12 12 11 11 12 11 12 12 12 13 14 13 14 15 15 14 12 13
4 3 5 8 3 6 4 7 6 5 5 2 4 6 5 5 4 2 3 2 5 5 3 3 4 9 10 10 10 10 10 12 13 13 12 12 12 12 13 10 10 11 10 10 11 11 11 12 12 13 13 12 12 14
4 0 3 4 5 5 7 6 5 6 8 3 3 4 4 2 3 0 2 3 4 6 7 8 8 9 9 9 9 10 9 10 14 18 17 11 11 10 11 11 11 11 10 11 7 5 8 9 11 11 13 11 11 12
3 9 4 10 10 7 6 6 7 7 9 9 7 8 6 4 3 2 6 6 7 8 10 9 9 10 10 10 10 10 9 11 11 11 11 11 11 11 11 11 11 10 10 11 10 11 7 10 12 12 12 10 10 11
3 4 7 6 8 7 7 3 7 5 5 6 6 5 5 4 3 5 6 7 7 8 8 8 8 9 9 9 9 9 9 8 12 13 11 9 9 10 10 11 10 11 12 13 13 12 13 11 11 11 11 13 12 11
3 4 4 0 4 7 4 1 0 3 4 1 3 4 4 3 2 2 6 9 9 8 7 6 6 6 7 7 8 7 4 7 8 8 12 9 9 10 11 10 11 11 12 12 11 10 12 12 10 11 10 12 12 12
4 5 5 4 5 6 5 4 3 2 3 3 2 3 4 5 2 4 5 6 6 7 8 10 7 8 9 9 10 8 5 8 9 5 4 3 6 6 8 9 9 12 14 10 10 10 11 12 11 12 13 13 13 13
Wind_Direction
330 330 333 335 335 334 334 338 343 328 322 321 320 316 326 327 290 264 267 226 214 226 275 268 275 287 281 278 276 315 301 253 271 227 184 198 259 262 254 246 255 259 226 222 225 225 221 213 173 205 41 106 62 11
333 332 329 330 335 338 335 343 343 333 329 333 328 325 315 313 310 279 277 268 234 231 275 300 273 268 261 265 275 270 231 278 318 314 333 300 249 310 321 257 238 232 250 260 251 244 131 79 346 58 127 82 38 331
334 333 334 336 337 342 345 346 348 353 348 339 335 330 321 315 309 259 283 283 282 275 278 253 255 251 241 239 240 260 269 251 243 128 287 269 256 283 288 296 314 308 19 291 232 251 148 157 176 140 69 117 146 5
342 344 339 337 335 339 342 345 341 338 336 331 321 315 316 324 325 289 259 267 212 276 273 291 284 295 285 277 211 226 242 264 106 48 323 289 289 7 344 339 318 359 321 343 291 156 110 114 128 139 140 111 87 55
336 337 334 329 332 334 333 330 324 322 324 320 313 307 304 292 283 288 276 256 218 228 287 303 304 272 249 297 224 204 216 227 231 25 6 277 342 341 344 282 258 4 348 331 317 330 310 131 110 94 90 81 94 90
335 334 331 329 327 327 328 326 328 324 318 313 305 304 301 302 308 305 288 41 179 188 301 298 322 307 314 227 239 176 209 225 237 115 233 267 248 239 255 244 262 326 316 270 313 29 21 144 94 79 76 75 91 82
342 340 338 335 333 330 326 324 317 312 307 304 302 293 287 287 286 277 289 271 312 302 278 290 293 310 327 311 166 164 196 204 221 153 208 261 256 220 263 284 340 5 303 202 94 60 67 4 46 72 76 69 63 67
336 334 333 330 327 322 318 314 313 309 308 307 304 287 268 266 267 262 210 215 107 111 229 280 285 304 45 246 136 148 164 159 216 240 125 240 246 243 258 346 335 332 350 96 160 135 127 111 67 59 51 68 62 52
329 325 323 322 319 314 314 317 321 317 308 307 311 289 261 217 230 207 119 140 83 263 268 227 284 292 322 326 20 60 205 201 143 159 263 296 311 16 299 78 72 38 38 96 104 94 94 93 84 61 53 53 47 34
323 321 316 311 309 308 309 312 318 316 307 306 279 198 255 154 117 130 143 170 166 181 199 249 225 251 225 225 195 88 220 195 155 201 134 14 320 306 88 83 97 101 68 61 85 89 84 72 64 64 64 60 38 22
323 320 316 311 310 309 310 316 322 321 294 214 267 254 3 153 195 235 258 216 156 243 204 220 240 233 215 237 279 24 34 112 147 141 85 20 348 357 35 39 23 63 97 83 95 99 85 74 56 59 54 101 94 65
320 317 312 313 314 310 310 320 326 317 345 327 301 287 270 215 225 270 277 272 257 335 306 287 319 195 198 285 340 183 337 120 49 48 62 43 310 356 353 239 207 191 162 139 111 100 93 93 86 31 17 28 71 125
319 317 316 316 313 305 311 319 317 303 283 236 230 248 325 345 321 1 352 326 319 268 256 308 242 117 246 195 210 220 34 52 138 48 50 300 271 295 318 319 218 222 260 198 179 176 66 144 139 109 76 19 18 50
317 315 317 317 309 310 321 322 314 327 282 327 325 333 359 337 314 145 260 256 265 259 287 282 296 177 185 176 109 46 75 48 55 46 1 284 306 315 317 319 107 151 167 131 80 83 99 82 89 70 66 85 54 19
316 313 316 308 321 332 324 316 307 271 275 347 358 0 333 313 339 29 211 264 211 305 305 331 35 26 16 32 20 53 56 53 43 343 257 281 282 273 5 46 48 45 47 52 72 90 96 85 89 85 93 57 45 35
317 307 350 345 346 328 318 306 241 229 240 325 332 17 359 354 352 3 349 2 338 137 286 357 21 19 38 28 19 18 43 30 46 113 304 312 359 45 43 52 35 35 50 47 54 58 66 74 75 65 80 93 75 66
307 251 14 352 333 316 303 281 274 339 12 48 12 16 355 352 338 357 347 351 8 18 28 39 35 20 20 37 28 10 42 42 301 4 89 63 40 72 65 49 44 43 47 36 7 4 68 339 40 89 101 89 88 114
264 326 350 331 329 303 221 341 316 26 28 22 24 16 1 13 2 357 359 20 19 25 41 59 71 44 28 37 70 42 140 140 113 95 75 68 62 48 52 60 64 59 49 74 268 27 75 334 1 33 10 41 56 20
297 306 308 299 304 302 316 29 330 353 31 25 49 13 2 21 9 10 12 30 46 43 42 40 43 30 36 31 33 36 43 68 20 35 56 60 66 65 90 67 87 73 60 50 26 47 62 51 25 38 16 70 67 33
290 285 275 286 189 282 1 15 284 3 357 28 29 39 34 21 26 30 32 26 42 41 36 38 43 40 38 29 29 30 31 28 40 42 54 27 351 19 35 40 51 113 77 88 77 26 31 38 22 7 3 343 360 6
253 358 316 278 190 329 4 332 47 359 329 46 26 52 40 35 37 45 50 42 49 38 47 72 73 49 33 34 18 12 18 51 39 41 54 95 288 16 52 27 12 41 43 27 13 30 27 31 13 356 336 351 5 321
13 320 289 48 344 350 6 50 329 349 319 85 51 53 33 37 54 33 30 39 44 39 357 45 44 59 58 39 23 12 6 9 37 35 344 331 49 18 34 30 34 26 29 31 5 21 21 32 14 336 359 5 349 351
287 208 259 310 10 66 282 4 24 359 13 48 29 51 49 55 32 5 55 26 18 351 34 20 23 33 42 57 54 23 2 1 15 41 6 356 14 21 9 30 31 46 38 34 10 14 6 354 9 335 11 358 0 10
166 312 338 342 347 296 291 340 105 269 234 22 26 96 85 76 55 55 61 356 298 24 36 21 12 21 34 25 28 35 4 1 5 23 20 2 8 4 11 11 34 42 25 21 9 351 348 350 335 346 358 342 4 18
333 330 306 290 242 321 291 355 6 35 351 323 36 91 66 278 132 94 38 15 10 20 17 3 13 15 19 11 16 28 23 8 4 355 9 353 10 26 27 11 23 45 10 1 345 339 356 353 345 2 8 24 12 349
8 112 20 358 18 2 349 359 1 2 337 26 9 313 125 31 63 49 27 344 6 15 354 4 1 358 360 2 360 21 24 8 9 359 351 355 39 31 18 6 10 22 352 348 2 0 1 357 1 4 359 357 347 341
357 13 12 162 293 21 0 2 8 24 16 5 6 307 117 70 56 44 285 316 346 344 339 350 350 346 356 8 4 29 29 14 16 355 337 31 45 41 19 7 17 12 337 11 4 349 359 2 1 353 342 340 338 347
249 77 66 337 342 68 353 18 16 18 13 356 333 14 49 38 52 117 242 321 321 326 322 260 6 17 4 12 15 23 29 20 11 8 354 21 27 30 12 1 12 352 351 23 11 356 12 2 345 345 341 334 351 6
173 219 51 255 59 49 41 28 22 15 343 3 74 50 85 83 138 208 330 279 260 285 330 12 33 27 3 18 25 17 36 35 15 13 9 7 10 11 2 4 3 2 3 352 19 49 35 350 347 3 5 6 7 3
99 138 215 49 67 80 40 49 50 47 54 62 90 105 126 134 109 303 292 329 352 8 28 12 33 33 6 13 14 21 22 53 39 23 0 356 360 1 355 4 1 359 357 346 352 2 33 353 13 12 11 2 10 355
5 70 71 60 90 97 107 64 92 81 75 74 70 107 121 94 350 345 358 350 4 22 30 9 30 50 16 11 13 14 3 47 49 34 12 349 360 1 350 356 360 359 1 353 359 9 13 3 12 7 4 5 5 354
343 18 103 192 107 106 155 131 161 155 141 184 159 152 126 170 91 27 359 2 0 17 36 8 20 50 58 0 26 17 345 53 46 34 23 15 9 3 345 7 3 355 354 1 3 10 8 9 5 6 357 350 357 349
14 41 8 63 159 209 134 151 174 250 223 142 124 135 115 99 74 36 11 14 24 27 18 358 18 62 64 43 24 350 23 91 109 140 190 244 281 301 320 2 2 357 350 7 13 6 7 7 9 5 3 0 359 352